GW4025 Weather Reports


time (UTC)temp
C
wind
direction
speed
KPH
gust
KPH
rain 1hr
cm
rain 24hr
cm
rain mn
cm
humidity
%
barometer
mb
20260508013603 13 130 0.0 1.6 0.00 0.00 0.00 76 1006.6
20260508012703 13 0 0.0 0.0 0.00 0.00 0.00 76 1006.8
20260508011803 13 202 0.0 6.4 0.00 0.00 0.00 76 1006.8
20260508010903 13 197 0.0 6.4 0.00 0.00 0.00 75 1006.8
20260508010003 13 182 0.0 1.6 0.00 0.00 0.00 75 1006.9
20260508005403 13 207 0.0 1.6 0.00 0.00 0.00 75 1006.9
20260508004503 13 193 0.0 1.6 0.00 0.00 0.00 76 1006.9
20260508003603 13 0 0.0 0.0 0.00 0.00 0.00 77 1007.0
20260508002703 13 134 0.0 3.2 0.00 0.00 0.00 78 1007.1
20260508002016 13 332 0.0 1.6 0.00 0.00 0.00 78 1007.1
20260508000903 13 0 0.0 0.0 0.00 0.00 0.00 76 1007.1
20260508000003 13 0 0.0 0.0 0.00 0.00 0.00 75 1007.0
20260507235403 13 0 0.0 0.0 0.00 0.00 0.00 75 1007.0
20260507234503 13 0 0.0 0.0 0.00 0.00 0.00 75 1007.1
20260507233605 13 277 0.0 4.8 0.00 0.00 0.00 75 1007.1
20260507232703 13 286 0.0 4.8 0.00 0.00 0.00 75 1007.1
20260507231803 13 307 0.0 3.2 0.00 0.00 0.00 75 1007.4
20260507230903 13 331 1.6 6.4 0.00 0.00 0.00 76 1007.4
20260507230004 13 350 0.0 3.2 0.00 0.00 0.00 76 1007.5
20260507225404 13 320 1.6 6.4 0.00 0.00 0.00 76 1007.1
20260507224504 13 333 1.6 9.7 0.00 0.00 0.00 76 1007.1
20260507223605 13 351 3.2 11.3 0.00 0.00 0.00 76 1007.1
20260507222916 13 332 3.2 11.3 0.00 0.00 0.00 76 1007.1
20260507221803 13 331 3.2 11.3 0.00 0.00 0.00 77 1007.1
20260507220903 13 315 3.2 11.3 0.00 0.00 0.00 77 1007.4
20260507220007 13 330 4.8 12.9 0.00 0.00 0.00 79 1007.1
20260507215403 13 320 3.2 12.9 0.00 0.00 0.00 80 1007.0
20260507214503 13 307 3.2 9.7 0.00 0.00 0.00 82 1006.7
20260507213605 13 327 3.2 6.4 0.00 0.00 0.00 82 1006.9
20260507212703 13 325 3.2 16.1 0.00 0.00 0.00 83 1006.7
20260507211803 13 333 3.2 9.7 0.00 0.00 0.00 84 1006.8
20260507211118 13 320 1.6 6.4 0.00 0.00 0.00 84 1006.9
20260507210218 13 310 1.6 9.7 0.00 0.00 0.00 83 1006.6
20260507205403 14 318 3.2 9.7 0.00 0.00 0.00 82 1006.9
20260507204503 14 326 1.6 9.7 0.00 0.00 0.00 82 1006.8
20260507203603 14 338 0.0 4.8 0.00 0.00 0.00 83 1006.7
20260507202705 14 0 0.0 0.0 0.00 0.00 0.00 82 1006.6
20260507202018 14 0 0.0 0.0 0.00 0.00 0.00 82 1006.7
20260507201118 14 0 0.0 0.0 0.00 0.00 0.00 82 1006.6
20260507200217 14 0 0.0 0.0 0.00 0.00 0.00 81 1006.5
20260507195403 14 0 0.0 0.0 0.00 0.00 0.00 81 1006.4
20260507194716 14 0 0.0 0.0 0.00 0.00 0.00 81 1006.3
20260507193605 14 0 0.0 0.0 0.00 0.00 0.00 79 1005.9
20260507192703 14 0 0.0 0.0 0.00 0.00 0.00 79 1005.8
20260507191803 14 358 0.0 1.6 0.00 0.00 0.00 79 1005.8
20260507190905 15 6 0.0 1.6 0.00 0.00 0.00 79 1005.7
20260507185405 15 12 0.0 1.6 0.00 0.00 0.00 79 1005.5
20260507184720 15 15 0.0 1.6 0.00 0.00 0.00 78 1005.6
20260507183603 15 8 0.0 1.6 0.00 0.00 0.00 77 1005.4
20260507182703 15 22 0.0 1.6 0.00 0.00 0.00 77 1005.4
20260507181803 16 346 0.0 1.6 0.00 0.00 0.00 76 1005.4
20260507180903 16 354 0.0 1.6 0.00 0.00 0.00 76 1005.4
20260507180004 16 354 0.0 1.6 0.00 0.00 0.00 74 1005.2
20260507175403 16 4 0.0 1.6 0.00 0.00 0.00 74 1005.0
20260507174503 16 356 0.0 1.6 0.00 0.00 0.00 75 1005.0
20260507173819 16 355 0.0 3.2 0.00 0.00 0.00 73 1004.8
20260507172705 16 5 0.0 1.6 0.00 0.00 0.00 71 1004.8
20260507171803 17 24 0.0 3.2 0.00 0.00 0.00 67 1004.9
20260507170905 18 0 0.0 0.0 0.00 0.00 0.00 59 1004.9
20260507170216 18 0 0.0 0.0 0.00 0.00 0.00 54 1004.7
20260507165405 18 329 0.0 1.6 0.00 0.00 0.00 55 1004.7
20260507164505 18 13 0.0 1.6 0.00 0.00 0.00 57 1004.7
20260507163603 18 295 0.0 1.6 0.00 0.00 0.00 56 1004.7
20260507162705 18 287 0.0 3.2 0.00 0.00 0.00 54 1004.7
20260507161803 19 305 0.0 3.2 0.00 0.00 0.00 53 1004.6
20260507160903 20 345 0.0 4.8 0.00 0.00 0.00 52 1004.6
20260507160003 20 345 0.0 3.2 0.00 0.00 0.00 50 1004.6
20260507155403 20 0 0.0 0.0 0.00 0.00 0.00 52 1004.6
20260507154718 19 340 0.0 1.6 0.00 0.00 0.00 51 1004.4
20260507153603 18 0 0.0 0.0 0.00 0.00 0.00 52 1004.6
20260507152703 18 37 0.0 1.6 0.00 0.00 0.00 53 1004.6
20260507151803 18 0 0.0 0.0 0.00 0.00 0.00 54 1004.6
20260507150905 18 0 0.0 0.0 0.00 0.00 0.00 56 1004.7
20260507150219 18 0 0.0 0.0 0.00 0.00 0.00 55 1004.8
20260507145403 18 0 0.0 0.0 0.00 0.00 0.00 54 1004.8
20260507144503 18 0 0.0 0.0 0.00 0.00 0.00 55 1004.9
20260507143603 18 135 0.0 4.8 0.00 0.00 0.00 55 1004.7
20260507142917 18 140 0.0 4.8 0.00 0.00 0.00 55 1005.0
20260507141803 20 50 0.0 4.8 0.00 0.00 0.00 52 1004.8
20260507140903 19 116 0.0 1.6 0.00 0.00 0.00 54 1005.0
20260507140003 18 0 0.0 0.0 0.00 0.00 0.00 57 1005.3
20260507135403 17 193 0.0 3.2 0.00 0.00 0.00 56 1005.2
20260507134503 18 95 0.0 1.6 0.00 0.00 0.00 57 1005.2
20260507133603 18 95 0.0 1.6 0.00 0.00 0.00 56 1005.3
20260507132703 18 142 0.0 1.6 0.00 0.00 0.00 55 1005.5
20260507132016 18 142 0.0 1.6 0.00 0.00 0.00 56 1005.5
20260507130903 17 152 1.6 6.4 0.00 0.00 0.00 59 1005.4
20260507130218 18 169 1.6 4.8 0.00 0.00 0.00 59 1005.5
20260507125403 18 154 1.6 9.7 0.00 0.00 0.00 59 1005.5
20260507124503 18 210 1.6 6.4 0.00 0.00 0.00 60 1005.2
20260507123603 17 90 0.0 6.4 0.00 0.00 0.00 59 1005.6
20260507122705 18 102 0.0 6.4 0.00 0.00 0.00 58 1005.5
20260507121803 18 128 0.0 1.6 0.00 0.00 0.00 60 1005.6
20260507120903 18 147 0.0 6.4 0.00 0.00 0.00 61 1005.7
20260507120004 18 193 1.6 6.4 0.00 0.00 0.00 60 1005.7
20260507115618 18 200 1.6 6.4 0.00 0.00 0.00 59 1005.7
20260507114717 18 137 0.0 9.7 0.00 0.00 0.00 61 1005.8
20260507113603 17 95 1.6 9.7 0.00 0.00 0.00 60 1005.9
20260507112920 16 165 0.0 3.2 0.00 0.00 0.00 64 1005.9
20260507111803 17 134 0.0 3.2 0.00 0.00 0.00 63 1006.2
20260507110903 17 210 0.0 9.7 0.00 0.00 0.00 63 1006.3
20260507110003 18 222 0.0 9.7 0.00 0.00 0.00 63 1006.3
20260507105403 17 199 0.0 1.6 0.00 0.00 0.00 63 1006.4
20260507104504 16 158 0.0 6.4 0.00 0.00 0.00 66 1006.3
20260507103603 17 146 0.0 1.6 0.00 0.00 0.00 65 1006.5
20260507102705 16 180 0.0 6.4 0.00 0.00 0.00 66 1006.4
20260507102018 16 246 0.0 6.4 0.00 0.00 0.00 67 1006.5
20260507100905 15 194 0.0 6.4 0.00 0.00 0.00 72 1006.5
20260507100003 15 200 1.6 9.7 0.00 0.00 0.00 72 1006.4
20260507095403 15 204 1.6 9.7 0.00 0.00 0.00 72 1006.6
20260507094503 15 162 0.0 4.8 0.00 0.00 0.00 69 1006.5
20260507093819 16 175 0.0 4.8 0.00 0.00 0.00 68 1006.4
20260507092919 15 191 1.6 4.8 0.00 0.00 0.00 70 1006.5
20260507091803 15 182 1.6 11.3 0.00 0.00 0.00 73 1006.4
20260507091117 14 142 1.6 9.7 0.00 0.00 0.00 75 1006.3
20260507090006 14 163 0.0 1.6 0.00 0.00 0.00 77 1006.2
20260507085403 14 216 3.2 9.7 0.00 0.00 0.00 77 1006.2
20260507084505 14 210 1.6 9.7 0.00 0.00 0.00 76 1006.0
20260507083603 15 199 1.6 6.4 0.00 0.00 0.00 75 1006.3
20260507082918 15 155 0.0 4.8 0.00 0.00 0.00 75 1006.1
20260507081805 14 182 0.0 4.8 0.00 0.00 0.00 77 1006.1
20260507080903 14 139 0.0 1.6 0.00 0.00 0.00 76 1006.0
20260507080216 13 0 0.0 0.0 0.00 0.00 0.00 77 1006.2
20260507075403 13 0 0.0 0.0 0.00 0.00 0.00 75 1006.1
20260507074505 13 0 0.0 0.0 0.00 0.00 0.00 76 1005.9
20260507073603 13 0 0.0 0.0 0.00 0.00 0.00 74 1006.2
20260507072703 13 0 0.0 0.0 0.00 0.00 0.00 74 1006.0
20260507071803 12 330 0.0 1.6 0.00 0.00 0.00 76 1006.1
20260507070903 12 316 0.0 1.6 0.00 0.00 0.00 74 1006.1
20260507070007 12 0 0.0 0.0 0.00 0.00 0.00 75 1006.0
20260507065404 11 0 0.0 0.0 0.00 0.00 0.00 74 1006.0
20260507064503 11 347 0.0 1.6 0.00 0.00 0.00 75 1005.8
20260507063603 11 0 0.0 0.0 0.00 0.00 0.00 74 1005.9
20260507062703 11 0 0.0 0.0 0.00 0.00 0.00 75 1005.9
20260507061805 10 0 0.0 0.0 0.00 0.00 0.00 80 1005.8
20260507060903 10 0 0.0 0.0 0.00 0.00 0.00 83 1005.8
20260507060004 10 0 0.0 0.0 0.00 0.00 0.00 81 1005.6
20260507055403 10 0 0.0 0.0 0.00 0.00 0.00 80 1005.8
20260507054503 10 0 0.0 0.0 0.00 0.00 0.00 80 1005.6
20260507053603 9 0 0.0 0.0 0.00 0.00 0.00 80 1005.4
20260507052703 9 43 0.0 1.6 0.00 0.00 0.00 80 1005.2
20260507052017 9 0 0.0 0.0 0.00 0.00 0.00 82 1005.4
20260507050903 9 354 0.0 1.6 0.00 0.00 0.00 81 1004.8
20260507050005 9 0 0.0 0.0 0.00 0.00 0.00 80 1005.0
20260507045403 9 57 0.0 1.6 0.00 0.00 0.00 79 1004.8
20260507044718 9 53 0.0 1.6 0.00 0.00 0.00 80 1004.9
20260507043603 9 0 0.0 0.0 0.00 0.00 0.00 76 1004.7
20260507042705 10 0 0.0 0.0 0.00 0.00 0.00 80 1004.6
20260507041805 10 0 0.0 0.0 0.00 0.00 0.00 79 1004.4
20260507040903 10 82 0.0 1.6 0.00 0.00 0.00 76 1004.2
20260507040219 10 0 0.0 0.0 0.00 0.00 0.00 76 1004.2
20260507035403 10 0 0.0 0.0 0.00 0.00 0.00 76 1004.2
20260507034503 10 0 0.0 0.0 0.00 0.00 0.00 76 1004.1
20260507033605 10 0 0.0 0.0 0.00 0.05 0.00 76 1004.2
20260507032704 10 0 0.0 0.0 0.00 0.08 0.00 75 1004.2
20260507031803 10 0 0.0 0.0 0.00 0.13 0.00 75 1004.2
20260507030903 10 0 0.0 0.0 0.00 0.18 0.00 74 1004.1
20260507030003 11 0 0.0 0.0 0.00 0.20 0.00 76 1004.2
20260507025618 11 0 0.0 0.0 0.00 0.23 0.00 78 1004.0
20260507024505 10 224 0.0 1.6 0.00 0.28 0.00 78 1004.1
20260507023603 10 315 0.0 1.6 0.00 0.36 0.00 80 1004.3
20260507022703 10 0 0.0 0.0 0.00 0.38 0.00 82 1004.2
20260507021805 10 0 0.0 0.0 0.00 0.46 0.00 80 1004.1
20260507020903 10 0 0.0 0.0 0.00 0.46 0.00 79 1004.1
20260507020003 10 0 0.0 0.0 0.00 0.46 0.00 80 1004.1
20260507015403 10 0 0.0 0.0 0.00 0.46 0.00 77 1004.2
20260507014505 10 54 0.0 1.6 0.00 0.46 0.00 78 1004.0